{"data":{"norad_id":58157,"epoch":"2026-05-25T04:18:00.440064Z","epoch_age_seconds":55574,"freshness":"FRESH","line1":"1 58157U 23166H   26145.17917176  .00003641  00000+0  12896-3 0  9993","line2":"2 58157  53.1597 224.0662 0000968  86.2171 273.8941 15.31715225144744","mean_motion":15.31715225,"eccentricity":9.68e-5,"inclination_deg":53.1597,"raan_deg":224.0662,"arg_perigee_deg":86.2171,"mean_anomaly_deg":273.8941,"bstar":0.00012896,"rev_number":14474,"period_min":94.012253485304,"perigee_km":470.03164376891,"apogee_km":471.35757756874,"semimajor_km":6848.8316106688,"source":"CELESTRAK","updated_at":"2026-05-25T13:38:18.537486Z"}}